Theta_e
309 309 310 310 310 309 309 310 311 312 312 311 310 309 308 307 306 309 318 316 315 314 315 315 315 316 317 317 318 316 314 315 317 316 315 315 315 313 315 316 315 315 315 315 319
309 309 309 310 310 309 309 311 313 314 314 314 314 313 309 308 308 315 315 315 314 312 315 315 315 316 314 318 317 315 315 317 315 314 315 313 313 312 313 311 311 313 312 315 318
309 309 309 311 311 310 310 313 315 316 316 316 316 315 312 308 317 317 314 314 312 311 316 316 316 315 316 316 317 317 316 316 316 316 316 315 314 312 312 312 311 312 312 312 316
311 310 311 313 314 315 313 315 316 317 318 318 318 316 314 310 310 313 313 313 311 312 315 315 314 315 315 315 315 317 316 316 316 315 315 316 315 314 313 314 311 310 311 311 311
312 312 312 315 316 317 316 317 319 319 319 319 318 316 311 316 313 316 311 313 312 313 314 313 314 314 315 314 313 314 315 315 314 313 312 314 314 313 312 312 310 310 310 309 310
312 313 314 316 317 318 319 319 320 320 320 318 317 314 312 314 315 315 311 312 313 313 314 314 314 313 313 314 313 312 313 312 312 312 312 314 312 314 312 310 310 310 309 308 309
314 314 315 316 318 319 320 320 321 320 319 317 314 310 315 313 314 315 312 313 314 314 314 314 314 314 313 313 314 314 313 311 311 311 312 311 312 312 310 309 310 310 309 309 310
315 315 315 317 319 320 321 321 321 320 318 314 310 313 312 312 313 313 313 313 314 314 314 313 313 313 313 313 312 314 312 312 312 313 313 311 312 311 310 311 312 310 308 308 307
315 315 315 317 319 320 321 321 321 319 313 311 313 316 312 309 310 312 312 312 313 312 312 312 313 312 313 312 311 310 310 312 313 313 312 311 310 311 310 310 310 309 308 308 307
315 315 316 317 319 320 321 321 320 313 316 315 314 312 310 311 311 311 310 312 311 311 311 311 310 310 310 310 310 312 312 314 315 315 314 313 311 310 312 311 308 308 306 307 306
316 316 317 318 319 321 322 319 316 315 314 315 313 312 310 311 310 310 310 311 311 312 311 311 309 311 309 309 309 313 314 314 313 313 313 313 312 312 312 310 309 308 307 306 305
317 317 317 319 320 321 322 316 314 313 317 315 314 312 313 312 313 310 310 310 311 312 311 312 311 311 310 312 313 313 314 313 312 313 313 312 311 311 312 310 310 307 307 306 304
317 317 318 319 320 322 322 318 314 312 316 319 317 317 313 312 314 313 309 310 311 312 312 312 313 312 313 315 314 314 314 314 315 311 310 311 311 311 311 307 306 305 305 304 303
318 318 318 319 320 321 319 318 316 313 320 322 317 312 309 310 314 309 309 311 313 313 312 313 313 314 314 315 314 315 313 312 311 311 313 311 312 311 309 308 306 304 303 302 301
320 318 319 319 322 321 315 316 315 312 330 317 312 309 309 312 310 309 308 310 314 313 313 316 312 311 313 314 313 314 310 310 311 311 312 311 311 311 309 309 307 304 303 301 299
321 319 319 320 320 319 314 312 312 324 329 318 310 311 309 309 309 308 308 308 309 312 311 312 308 310 310 311 310 309 311 310 309 309 314 313 312 312 309 309 306 304 301 299 298
320 320 320 320 320 320 315 317 323 326 322 315 311 311 311 310 310 310 309 309 310 311 312 311 311 310 309 311 309 310 311 315 316 314 317 313 312 312 309 307 306 303 300 298 296
320 320 318 320 320 321 318 321 324 325 325 314 311 311 312 311 310 310 310 312 310 311 313 316 318 311 310 312 314 309 311 314 316 319 317 311 315 313 308 305 302 300 298 297 295
317 318 318 317 317 317 319 319 323 322 323 326 321 318 318 316 315 314 312 314 314 310 316 315 315 311 311 311 311 313 313 312 314 301 309 312 311 310 307 304 301 300 298 296 295
317 317 317 318 317 317 316 317 320 320 320 320 324 323 324 324 323 321 321 315 313 311 311 312 313 309 309 310 308 311 309 313 310 309 309 311 310 311 308 304 301 300 298 296 295
314 316 315 316 316 317 319 316 318 318 318 320 320 322 322 322 321 323 319 312 311 310 310 311 311 310 309 311 312 310 309 310 311 312 313 311 311 307 307 302 301 299 298 296 295
309 315 312 315 318 317 318 317 317 317 317 318 317 318 320 320 319 319 320 313 311 311 311 312 313 311 312 310 311 310 311 311 316 314 309 311 312 304 301 300 299 299 298 297 296
310 310 308 313 319 318 316 317 316 316 317 318 318 317 316 317 318 316 314 311 310 311 313 314 311 306 305 309 310 312 312 311 311 311 309 315 312 303 302 300 299 296 293 291 290
307 310 310 310 313 316 317 317 317 314 316 316 316 314 314 315 314 313 313 310 306 308 309 311 311 305 304 309 310 310 309 308 307 307 307 309 308 306 304 301 294 292 289 289 289
305 307 308 310 312 313 314 315 316 314 314 314 315 315 314 314 313 314 311 307 303 305 304 308 310 311 305 306 306 305 306 304 304 304 303 304 301 300 300 298 291 289 289 289 289
305 304 303 304 307 312 313 313 313 313 312 311 312 310 312 311 308 307 307 307 306 302 302 301 301 300 297 302 302 301 300 300 301 301 301 301 301 298 291 290 288 288 289 289 288
298 298 299 303 304 308 309 311 310 308 303 304 308 306 308 304 301 299 299 299 301 300 300 300 298 294 296 298 295 294 297 298 297 298 298 298 297 290 292 291 289 289 289 287 288
Wind_Speed
4 4 4 4 5 5 6 7 8 9 10 11 11 12 13 15 16 12 5 4 3 5 4 5 2 2 1 1 0 3 3 2 3 6 4 6 5 5 2 3 1 3 5 7 12
5 5 5 6 6 6 7 8 9 10 11 11 13 13 14 16 16 8 6 6 6 5 8 7 3 4 2 2 1 4 3 6 4 1 3 3 3 5 5 9 5 4 6 2 12
7 7 6 6 7 8 7 8 10 12 12 13 13 13 12 12 5 2 1 3 5 8 5 6 7 4 2 1 4 4 5 3 6 3 0 1 7 6 5 8 6 7 6 3 13
7 7 4 5 7 8 8 9 11 13 13 14 13 12 10 5 4 1 1 2 5 10 3 1 1 2 3 3 5 3 8 6 5 4 4 2 1 6 7 16 8 10 8 6 8
7 8 6 6 7 8 9 10 12 13 14 14 12 10 4 1 7 3 2 3 6 10 4 3 4 4 3 3 4 4 3 5 7 9 6 4 5 7 13 17 11 11 9 9 8
8 8 7 7 7 8 10 11 13 15 14 13 11 6 1 3 4 5 3 4 5 7 3 4 2 4 4 3 1 3 3 6 7 12 5 7 5 1 10 6 9 7 8 7 6
9 8 8 8 8 10 11 12 14 15 14 12 8 2 2 11 5 3 2 3 5 4 2 3 2 3 2 4 2 2 5 8 11 7 7 7 6 8 12 7 8 7 6 9 11
11 10 8 8 9 10 12 12 15 15 12 8 2 3 6 6 5 5 4 2 5 6 2 1 4 2 2 2 6 3 1 3 6 3 1 2 9 7 11 6 14 8 8 8 17
12 11 10 9 9 11 13 14 16 14 6 2 1 2 7 2 4 6 6 3 6 4 2 2 4 4 2 4 4 2 4 5 7 1 3 2 7 9 10 8 11 5 7 14 12
13 11 10 10 9 9 13 15 14 9 2 2 2 1 3 4 4 4 6 8 3 5 3 2 3 2 2 4 5 5 3 4 4 4 2 5 9 9 18 2 10 6 11 12 16
14 13 11 10 9 8 11 5 3 1 4 8 6 4 5 4 5 3 4 7 4 2 5 3 4 7 11 10 5 2 4 4 6 9 4 7 6 10 21 8 7 7 13 14 16
16 15 12 10 9 7 7 2 2 1 6 11 13 6 6 7 3 4 9 5 5 6 4 2 6 11 7 4 7 7 5 6 5 4 2 5 9 16 18 7 6 17 12 13 13
19 17 13 9 8 10 8 5 2 0 2 7 5 4 4 9 5 7 10 5 5 6 7 7 6 7 6 4 7 2 5 2 6 3 5 3 6 8 5 16 18 15 15 14 14
23 19 15 8 5 7 4 6 5 3 4 5 4 2 3 5 2 1 3 4 4 9 6 6 6 6 7 6 7 5 4 5 4 2 3 3 4 8 6 12 14 11 12 12 13
26 23 18 17 3 3 4 6 5 2 5 1 2 2 3 5 6 1 0 2 5 5 6 6 5 3 3 6 7 5 3 3 2 2 3 5 3 6 7 7 7 9 12 12 12
30 25 20 18 17 6 9 7 4 3 11 3 4 5 5 3 3 3 2 0 2 1 2 6 1 3 7 2 4 4 1 3 3 3 0 5 6 5 4 7 7 8 10 10 10
26 23 27 22 7 22 14 5 2 6 1 4 4 5 3 5 4 5 5 5 5 5 5 4 7 1 2 3 4 4 4 3 3 1 5 0 3 6 5 9 13 14 10 8 8
12 14 14 17 16 20 15 3 7 4 3 3 4 6 7 7 6 6 5 3 6 2 3 5 2 9 4 5 5 5 7 4 5 3 3 7 3 3 10 17 15 12 10 8 7
16 15 11 14 8 19 3 2 5 5 1 3 4 3 4 3 4 4 7 5 4 10 6 4 2 1 3 3 6 3 4 4 2 1 3 4 4 5 9 11 11 10 9 7 7
14 11 7 15 11 4 3 4 3 1 2 4 3 2 4 4 3 2 2 2 4 2 2 3 2 3 1 2 3 2 1 1 2 1 4 4 3 5 8 8 6 6 6 6 5
6 3 9 20 16 3 3 6 5 4 2 3 2 4 4 3 1 4 6 2 5 2 5 3 3 3 4 3 5 1 1 2 2 5 4 2 4 4 10 8 8 7 7 7 6
5 3 11 24 6 1 4 6 6 6 3 4 3 3 5 5 4 0 3 4 7 2 4 2 3 4 7 5 2 4 3 5 3 4 3 2 7 7 10 8 7 6 6 5 5
3 2 5 5 6 9 4 5 6 5 5 7 9 7 3 6 3 6 5 2 7 4 4 2 1 2 8 4 3 2 3 4 4 2 5 5 8 7 8 6 5 7 5 5 4
2 2 2 2 1 4 7 8 10 6 4 5 3 4 4 5 5 5 6 1 2 2 3 2 5 7 7 3 3 3 4 4 5 2 3 9 8 19 13 1 6 5 6 5 5
2 4 3 4 6 11 5 6 9 7 6 9 6 9 8 5 7 7 6 4 3 2 2 3 6 4 3 6 5 5 10 4 5 10 6 19 14 16 10 1 7 7 5 5 1
3 3 1 2 3 11 11 14 13 9 9 6 10 10 15 10 9 5 7 5 5 2 2 3 3 2 3 4 6 8 13 8 12 16 12 14 20 3 2 6 7 6 4 3 6
3 2 2 2 4 7 13 16 8 8 2 2 9 6 5 4 5 5 5 5 5 6 4 4 4 3 5 2 4 8 10 14 10 6 6 8 9 2 3 2 6 3 1 5 3
Wind_Direction
330 334 337 337 340 343 344 350 350 345 340 336 333 330 328 324 319 306 250 244 215 243 189 139 154 207 294 268 114 61 59 264 265 8 320 357 12 360 323 240 266 227 208 240 175
307 312 316 320 325 329 336 341 341 338 334 332 330 330 330 328 323 270 260 233 255 231 171 169 188 191 355 230 190 106 132 232 158 181 312 308 57 307 352 295 286 298 293 251 179
304 305 309 317 317 322 328 332 334 333 331 329 327 327 328 331 334 285 340 221 203 178 159 240 268 178 192 185 216 196 201 226 296 342 138 314 330 336 337 282 235 254 276 208 206
305 306 302 310 323 327 322 325 328 329 328 326 327 327 325 337 300 287 176 157 178 175 197 213 163 153 217 227 226 217 235 239 269 314 315 278 281 308 249 259 259 267 252 288 282
292 300 296 302 312 319 316 318 325 325 324 322 323 324 324 20 255 269 272 212 185 178 210 209 187 184 230 247 357 217 250 303 308 292 270 280 244 244 269 267 269 278 296 277 256
283 290 292 291 300 308 314 315 320 321 319 316 316 319 171 238 232 281 273 195 182 189 217 217 210 186 258 270 184 312 319 281 274 264 255 248 259 194 274 300 305 304 314 323 311
270 275 281 285 291 300 307 311 316 317 316 315 311 218 224 241 228 258 190 186 179 201 238 303 223 108 21 318 276 319 321 309 264 267 220 166 304 225 257 315 296 319 331 317 303
268 268 268 277 287 297 303 306 312 311 310 328 314 151 243 200 209 227 193 186 211 204 196 61 84 97 181 306 358 287 313 311 287 103 311 109 271 264 277 295 298 350 319 302 57
263 266 269 272 283 296 303 305 304 296 295 308 163 180 267 166 186 189 194 192 140 132 113 107 105 177 66 104 355 286 232 209 310 307 127 149 256 270 283 285 288 321 313 81 63
258 257 262 269 278 295 305 308 293 290 239 196 266 320 229 212 163 166 177 151 136 122 64 95 65 113 48 109 220 223 232 293 261 266 189 229 249 278 287 233 274 287 77 76 64
252 253 256 268 278 300 321 332 340 307 222 199 188 223 138 138 155 177 152 143 124 128 167 215 135 201 212 202 206 299 249 266 275 279 303 273 304 283 276 291 290 26 97 87 69
247 248 250 256 275 282 303 241 231 194 302 249 247 235 176 169 179 194 165 153 157 194 154 89 224 226 230 216 209 226 225 255 279 323 311 291 296 282 286 283 82 113 89 79 77
242 240 240 247 267 273 233 243 231 296 251 280 226 189 169 153 215 201 165 179 183 185 197 187 221 199 195 263 279 281 236 229 246 309 287 320 293 287 9 83 82 79 91 81 76
236 231 228 222 255 231 217 215 211 176 268 244 222 239 104 131 231 91 188 187 219 201 212 243 226 243 260 235 196 255 222 205 225 101 231 68 281 290 67 85 68 68 72 77 74
228 223 215 199 198 194 172 176 164 151 291 171 162 132 133 155 135 275 63 62 190 179 135 232 169 145 172 229 158 236 115 205 226 191 29 280 95 263 134 84 95 90 82 74 71
220 213 210 209 224 191 169 150 129 104 234 211 137 164 130 168 135 136 147 309 163 177 217 221 298 188 198 176 110 137 37 288 91 123 7 257 162 290 176 170 127 105 93 89 82
216 210 213 204 190 206 171 95 158 214 203 188 194 162 179 161 173 171 161 180 163 136 211 189 222 194 153 110 47 83 68 307 354 2 219 123 133 241 17 97 116 110 93 76 70
180 209 212 202 211 189 154 144 214 187 266 168 134 158 179 153 198 186 144 214 242 240 146 170 291 159 186 179 182 173 165 167 234 222 250 339 261 10 83 93 100 101 103 92 79
140 139 143 139 135 156 170 157 185 204 36 42 32 173 213 174 136 148 196 209 217 179 181 140 151 97 145 167 139 201 177 191 175 72 56 217 103 78 95 91 99 102 95 92 92
150 156 180 170 165 161 87 207 237 155 124 130 142 267 220 19 42 114 238 293 163 141 189 178 187 210 180 113 49 146 261 326 14 294 254 268 264 166 167 141 118 107 116 108 101
143 149 168 177 171 184 190 207 208 186 116 125 197 178 184 148 281 213 212 30 30 130 46 116 124 271 92 188 177 131 208 199 191 160 198 240 244 174 161 150 147 159 152 152 156
144 169 180 160 189 183 201 177 187 158 164 203 175 232 195 150 173 124 264 341 353 341 141 353 121 187 219 264 125 206 213 168 175 255 242 171 268 139 146 158 156 153 159 164 152
132 138 196 226 206 204 181 176 184 161 180 173 191 203 196 157 181 227 204 40 13 49 134 188 7 24 338 6 39 83 121 115 103 121 207 239 251 174 143 145 164 172 144 114 102
96 168 176 246 260 199 195 199 208 203 181 172 165 139 153 163 204 184 207 29 47 153 119 209 173 172 200 160 125 276 170 106 121 159 194 240 296 282 294 201 167 153 129 107 70
138 223 217 195 221 225 210 186 190 180 214 170 202 184 155 186 185 197 191 145 25 280 43 131 189 209 233 148 162 219 260 178 203 236 211 274 265 274 296 105 169 135 115 90 27
175 161 318 318 171 197 202 223 220 206 170 199 214 190 197 212 195 180 154 160 182 163 114 346 190 101 291 181 204 258 257 238 234 248 246 256 267 277 171 111 106 118 93 12 306
167 121 113 216 188 186 218 223 209 171 114 35 192 137 146 140 105 98 77 83 134 144 140 143 129 88 271 75 53 297 245 222 226 200 199 228 241 190 237 197 151 140 10 309 268